Regional Weather Roundup
Issued by NWS

Home | Current Version | Previous Version | Text Only | Print | Product List | Glossary Off
Versions: 1 2 3 4 5 6 7 8 9 10 11 12 13 14 15 16 17 18 19 20 21 22 23 24 25 26 27 28 29 30 31 32 33 34 35 36 37 38 39 40 41 42 43 44 45 46 47 48 49 50

000
ASUS43 KDMX 212206
RWRIA

WEATHER ROUNDUP FOR IOWA
NATIONAL WEATHER SERVICE DES MOINES IA
400 PM CST TUE NOV 21 2017

NOTE: "FAIR" INDICATES FEW OR NO CLOUDS BELOW 12,000 FEET WITH NO
SIGNIFICANT WEATHER AND/OR OBSTRUCTIONS TO VISIBILITY.

* - THESE STATIONS ARE NOT NWS STATIONS...THUS NOT UNDER NWS
QUALITY CONTROL.  THEY ALSO DO NOT REPORT WEATHER SUCH
AS PRECIPITATION OR FOG.

IAZ001>003-012>014-020>022-031>034-043>046-212300-
   NORTHWEST IOWA

CITY           SKY/WX    TMP DP  RH WIND       PRES   REMARKS
CARROLL *      CLEAR     32  12  43 NW25      30.25R WCI  19
CHEROKEE *     CLEAR     30  10  42 NW17G25   30.29R WCI  18
DENISON *      CLEAR     30  12  47 NW22      30.30R WCI  17
LE MARS *      CLEAR     30  10  43 NW14      30.32R WCI  20
ORANGE CITY *  CLEAR     30  10  43 N12       30.29R WCI  21
SHELDON *      CLEAR     28   9  43 N17G23    30.28R WCI  16
SIOUX CITY     CLEAR     29  10  45 NW16      30.33R WCI  17
SPENCER        CLEAR     29   8  41 NW24      30.27R WCI  15
STORM LAKE *   CLEAR     28  10  47 NW16G26   30.26R WCI  17
$$

IAZ055>058-069>071-079>083-090>094-212300-
   SOUTHWEST IOWA

CITY           SKY/WX    TMP DP  RH WIND       PRES   REMARKS
ATLANTIC *     CLEAR     32  14  47 N15G26    30.29R WCI  22
AUDUBON *      CLEAR     30  12  47 NW14G24   30.27R WCI  20
CLARINDA *     CLEAR     34  14  44 N16G24    30.30R WCI  23
COUNCIL BLFS * CLEAR     32  14  47 MISG      30.30R
CRESTON *      CLEAR     32  14  47 N20G28    30.25R WCI  20
HARLAN  *      CLEAR     30  14  51 NW22G28   30.32R WCI  17
LAMONI         CLEAR     35  17  47 N18       30.21R WCI  24
RED OAK *      CLEAR     34  14  44 NW16G25   30.30R WCI  23
SHENANDOAH *   CLEAR     34  14  44 N15G24    30.31R WCI  24
$$

IAZ047>049-059>061-072>074-084-212300-
   CENTRAL IOWA

CITY           SKY/WX    TMP DP  RH WIND       PRES   REMARKS
AMES           CLEAR     33  16  49 N21G28    30.22R WCI  21
ANKENY *       CLEAR     34  16  47 NW17G25   30.23R WCI  23
BOONE *        CLEAR     32  14  47 NW18      30.21R WCI  20
CHARITON *     CLEAR     34  16  47 NW20      30.20R WCI  22
DES MOINES     CLEAR     35  15  44 N20G25    30.22R WCI  24
GRINNELL*      CLEAR     32  18  56 NW22G29   30.19R WCI  20
KNOXVILLE *    CLEAR     34  14  44 N17G26    30.19R WCI  23
MARSHALLTOWN   CLEAR     31  17  56 NW20G31   30.19R WCI  19
NEWTON *       CLEAR     34  16  47 NW24      30.20R WCI  21
PELLA *        CLEAR     34  17  49 NW18      30.22R WCI  23
PERRY *          N/A     32  12  43 NW15      30.25R WCI  22
$$

IAZ004>006-015-016-023>025-035-036-212300-
   NORTH CENTRAL IOWA

CITY           SKY/WX    TMP DP  RH WIND       PRES   REMARKS
ALGONA *       CLEAR     28  10  47 NW16G30   30.23R WCI  17
CLARION *      CLEAR     28  12  50 NW25      30.23R WCI  14
ESTHERVILLE    CLEAR     26  10  50 N23G30    30.25R WCI  11
FORT DODGE *   CLEAR     29  12  49 N12G22    30.24R WCI  19
MASON CITY     CLEAR     26  11  52 NW22G31   30.20R WCI  12
FOREST CITY *    N/A     28  12  50 NW14G24   30.21R WCI  17
WEBSTER CITY * FLURRIES  30  12  47 NW26G35   30.21R WCI  16
IOWA FALLS *     N/A     31  16  52 NW23G31   30.21R WCI  18
$$

IAZ007>011-017>019-026>030-037>042-050>054-066-212300-
   NORTHEAST IOWA

CITY           SKY/WX    TMP DP  RH WIND       PRES   REMARKS
CEDAR RAPIDS   CLEAR     32  17  54 NW22G28   30.14R WCI  19
CHARLES CITY * CLEAR     28  14  54 NW22      30.18R WCI  15
CLINTON *      CLEAR     33  19  56 NW17      30.10R WCI  22
DECORAH *      CLEAR     28  14  54 NW14G24   30.13R WCI  17
DUBUQUE        CLEAR     30  15  53 NW13G26   30.09R WCI  20
MONTICELLO *   CLEAR     32  16  51 NW18G30   30.12R WCI  20
OELWEIN *      CLEAR     30  18  59 NW23G31   30.15R WCI  17
WATERLOO       CLEAR     30  15  53 NW18G26   30.17R WCI  18
$$

IAZ064-065-067-068-078-212300-
   EAST CENTRAL IOWA

CITY           SKY/WX    TMP DP  RH WIND       PRES   REMARKS
DAVENPORT      CLEAR     32  19  58 NW22G29   30.13R WCI  19
IOWA CITY      CLEAR     34  16  47 NW15G30   30.17R WCI  24
MT. PLEASANT * CLEAR     33  18  52 NW16G23   30.15R WCI  23
MUSCATINE *    CLEAR     34  16  47 NW20      30.16R WCI  22
QUAD CITIES    CLEAR     34  17  50 NW21G28   30.11R WCI  22
$$

IAZ062-063-075>077-085>089-095>099-212300-
   SOUTHEAST IOWA

CITY           SKY/WX    TMP DP  RH WIND       PRES   REMARKS
BURLINGTON     CLEAR     34  20  56 NW15G22   30.14R WCI  24
FAIRFIELD *    CLEAR     34  16  47 NW22G30   30.16R WCI  22
FORT MADISON * CLEAR     36  19  51 NW16G24   30.15R WCI  26
KEOKUK *       CLEAR     36  19  51 NW12G26   30.15R WCI  27
OSKALOOSA *      N/A     33  18  54 NW25      30.19R WCI  20
OTTUMWA        CLEAR     34  18  52 NW22G32   30.19R WCI  22
WASHINGTON *   CLEAR     34  18  51 NW18G24   30.17R WCI  23
$$

ABBREVIATIONS USED IN REMARKS
   TC - TEMPERATURES IN CELSIUS
  WCI - WIND CHILL INDEX
   HX - HEAT INDEX
  VSB - VISIBILITY
$$




USA.gov is the U.S. government's official web portal to all federal, state and local government web resources and services.